TYVAK-0092 (44852 NORAD) Tracking and Keplerian Element Data

This shows tracking and keplerian element data for the satellite.

Feedback or suggestion? Click here.




ElementValue
Catalog44852
NameTYVAK-0092
Epoch Orbit1609
Epoch Day87.79586402
Epoch Year2020
RAAN220.4201
Inclination36.9676
Eccentricity0.0004803
Argument of Perigee152.3605
Mean Anonmoly207.7394
Mean Motion14.99543981
Decay Rate5.39E-06
L11 44852U 19089A 20087.79586402 .00000539 00000-0 49357-4 0 9997
L22 44852 36.9676 220.4201 0004803 152.3605 207.7394 14.99543981 16091

Live tracking and technical data element details for TYVAK-0092 (NORAD 44852). TYVAK-0092 can be tracked NOW for your location showing map with azimuth and elevation plus other details from your city location.

Track the satellite on the map from your city or location and see movement details for azimuth, elevation, latitude, longitude, range, height, and movement on the map or in text.







IsCatalogInMostPopularTable: catalog: 44852, numindb: 45
Update: records affected: 1



GetName: 44852 TYVAK-0092

Hit Count: updated at: Sat, 28 Mar 2020 21:15:25 GMT